PSLV R/B, 44805

Orbit data source: Space-Track

PSLV R/B, 44805 is space debris in SSO originally from a launch on Wed, 27 Nov 2019 UTC launched from the Sirharikota (SRI). Debris objects in space refer to the collection of defunct objects orbiting the Earth. Examples of debris include non-operational satellites, rocket bodies, and fragments generated from explosions, collisions, or faulty payload assembly.

Loading next visibility...
Identifier
44805, 2019-081B
Orbit
SSO
Last TLE update
10 hours ago
Origin
Manufacturer
VSSC/LPSC
Mission
Spacecraft
Bus & Motor
PS-4, Unknown motor
Mass
920 kg wet, 920 kg dry
Launch date (UTC)
2019-11-27 (5 years ago)
Launch vehicle
Unknown
Launch site
Sirharikota (SRI)
Object type
Payload
Rocket body
Debris
Shape & HBR
Cyl + Cyl + 2 Nozzle, 3.238 m
Radar Cross Section
6.185 m², Large (>1 m²)

Expand to show TLE details & history

TLE from 10 hours ago
0 PSLV R/B
1 44805U 19081B   25128.96826308  .00016333  00000-0  42458-3 0  9992
2 44805  97.2281 166.4259 0029832 134.3528 226.0169 15.38543397301856
Epoch: 2025-05-08T23:14Z
Definitive object data (Epoch: 2025-05-08T23:14:17.93Z)
Latitude
-0.00006°
Longitude
-49.17995°
Altitude
467.718 km
Speed
7.624 km/s
True Right ascension
11h 05m 42s
True Declination
0° 00' 00"
Sunlit
Object was in full shadow at TLE epoch
Visualization TLE readout
Latitude
79.50152°
Longitude
-91.67158°
Altitude
450.732 km
Speed
7.656 km/s
Apparent Right ascension
05h 43m 05s
Apparent Declination
24° 15' 22"
Sunlit
Object is in daylight
Visualization observer readout
Local Sidereal Time
17:06:51
Azimuth
350.868° N
Elevation
-25.274°
Doppler factor
1
Orbital elements
Apogee altitude
467.711 km
Perigee altitude
426.988 km
Semi-major axis
6,825.486 km
Eccentricity
0.0029832
Inclination
97.2281°
RAAN
166.4259°
Arg. of periapsis
134.3528°
True anomaly
225.77156°
Mean anomaly
226.0169°
Eccentric anomaly
225.89417°
Mean motion
3.84895 °/min
BSTAR
0.00042458
Orbital period
93.53 mins
Loading maneuver chart data...
Loading SW <> Apogee altitude chart data...
Loading historical data...
Loading historical data...
Loading historical data...
Loading historical data...
Loading historical data...
Loading historical data...
Loading historical data...

PSLV R/B Visibility forecast

Observer location: undefined°, undefined°

Span
Click to sort rows by Start time (UTC) header in descending order
Start Az.
Max El. time (UTC)
Max El. Az.
Max El.
End time (UTC)
End Az.
5 mins2025-05-09 15:24:36.911Z7.244° NNE2025-05-09 15:26:36.911Z344.668° N41.576°2025-05-09 15:29:36.911Z198.32° SSW
4 mins2025-05-10 01:55:36.911Z117.176° SE2025-05-10 01:57:36.911Z64.403° ENE23.79°2025-05-10 01:59:36.911Z20.066° NNE
|